Terminal Aerodrome Forecast
Issued by NWS Anchorage, AK

Home | Current Version | Previous Version | Text Only | Print | Product List | Glossary On
Versions: 1 2 3 4 5 6 7 8 9 10 11 12 13 14 15 16 17 18 19 20 21 22 23 24 25 26 27 28 29 30 31 32 33 34
000
FTAK31 PANC 041137
TAFANC
TAF
PANC 041137Z 0412/0518 18008KT P6SM SCT120
     FM041500 VRB05KT P6SM SCT120
     FM041800 30006KT P6SM FEW060 SCT100
     FM050600 VRB04KT P6SM SKC=

USA.gov is the U.S. government's official web portal to all federal, state and local government web resources and services.